Voltar ao catálogo

COSMOS 397 DEB *

AtivoLEO
NORAD 5414·DEBRIS·🇷🇺 Russia

Lançado Feb 25, 1971 de Baikonur Cosmodrome

Loading…

Próximas Passagens (próximas 24 horas)

TLE

AtualizadoSource: Space-Track

Época: Sep 13, 2026, 13:37 UTC

1  5414U 71015BL  26256.56753553  .00000113  00000-0  12000-3 0  9999
2  5414  66.7670 193.5776 0083342 185.2664 174.7553 14.03078755837705

Acompanhe COSMOS 397 DEB * em tempo real com AllMySat

Download on the App Store